Location: *
(33.8649°S, 62.1526°E)
Time: 12:52:02
(UTC+00:00)

Ariane Rocket - Pass Details

Date: 17 January 2021
Orbit: 760 x 770 km, 98.7° (Epoch: 02 March)

Event Time Altitude Azimuth Distance (km) Brightness Sun altitude
Rises 16:07:35 0° 158° (SSE) 3,254 6.4 -12.1°
Reaches altitude 10° 16:10:04 10° 150° (SSE) 2,320 5.6 -12.5°
Maximum altitude 16:14:50 39° 81° (E) 1,134 3.5 -13.3°
Enters shadow 16:18:54 13° 16° (NNE) 2,061 4.8 -14.0°
